Orbital Elements at Epoch 2459200.5 (2020-Dec-17.0) TDB
Reference: JPL 32 (heliocentric ecliptic J2000)
Element | Value | Uncertainty (1-sigma) | Units |
e | .0874937984202607 | 3.6949e-08 | |
a | 2.919763757275691 | 1.3335e-08 | au |
q | 2.664302535661829 | 1.0732e-07 | au |
i | 1.901871073557439 | 4.443e-06 | deg |
node | 179.0490237388793 | 0.00011964 | deg |
peri | 153.44721025 | 0.00012309 | deg |
M | 66.65858037088566 | 2.8818e-05 | deg |
tp | 2458863.077874771647 (2020-Jan-14.57787477) | 0.00014621 | TDB |
period | 1822.300511147133 4.99 | 1.2484e-05 3.418e-08 | d yr |
n | .1975524880763936 | 1.3534e-09 | deg/d |
Q | 3.175224978889553 | 1.4502e-08 | au |
|
| | Orbit Determination Parameters
Additional Information
|